Location: Newark
(33.9035°S, 18.4112°E)
Time: 06:45:03
(UTC+00:00)

FALCON 9 DEB - Pass Details

Date: 19 January 2020
Orbit: 231 x 236 km, 53.0° (Epoch: 21 February)

Event Time Altitude Azimuth Distance (km) Brightness Sun altitude
Exits shadow 01:47:25 - 69° (ENE) 1,685 ? -22.1°
Enters shadow 02:41:22 -73° 310° (NW) 12,577 ? -13.8°
Maximum altitude 03:20:11 76° 227° (SW) 270 ? -7.1°
